Lima, OH

8:18 PM EDT on October 19, 2017 (GMT -0400)
Lima Allen County

Weather History for KAOH - March, 2013

Change the Weather History Date:

Sunday, March 3, 2013

  Actual Average (KFDY) Record (KFDY)
Temperature  
Mean Temperature 26 °F -  
Max Temperature 30 °F 42 °F 69 °F (1974)
Min Temperature 23 °F 26 °F 0 °F (2014)
Degree Days  
Heating Degree Days 38    
Moisture  
Dew Point 16 °F    
Average Humidity 67    
Maximum Humidity 81    
Minimum Humidity 51    
Precipitation  
Precipitation 0.00 in - - ()
Sea Level Pressure  
Sea Level Pressure 30.05 in    
Wind  
Wind Speed 9 mph (NW)    
Max Wind Speed 15 mph    
Max Gust Speed 22 mph    
Visibility 9 miles    
Events Snow    
Averages and records for this station are not official NWS values.
T = Trace of Precipitation, MM = Missing Value Source: NWS Daily Summary

Daily Weather History Graph

Daily Weather History Graph

Search for Another Location

Airport or City:

Trip Planner

Search our weather history database for the weather conditions in past years. The results will help you decide how hot, cold, wet, or windy it might be!

Date:

Astronomy

Mar. 03, 2013 Rise Set
Actual Time 7:06 AM EST 6:29 PM EST
Civil Twilight 6:39 AM EST 6:57 PM EST
Nautical Twilight 6:07 AM EST 7:29 PM EST
Astronomical Twilight 5:35 AM EST 8:00 PM EST
Moon 12:09 AM EST (3/3) 10:18 AM EST (3/3)
Length of Visible Light 12h 18m
Length of Day
11h 23m
Waning Gibbous, 64% of the Moon is Illuminated
Mar 3
Waning Gibbous
Mar 4
Last Quarter
Mar 11
New
Mar 19
First Quarter
Mar 27
Full

Hourly Weather History & Observations

Time (EST) Temp. Windchill Dew Point Humidity Pressure Visibility Wind Dir Wind Speed Gust Speed Precip Events Conditions
12:53 AM 25.0 °F 15.5 °F 17.1 °F 72% 30.07 in 10.0 mi NW 9.2 mph - 0.00 in   Overcast
1:53 AM 25.0 °F 15.5 °F 16.0 °F 69% 30.07 in 10.0 mi NW 9.2 mph - N/A   Overcast
2:53 AM 24.1 °F 13.7 °F 15.1 °F 69% 30.06 in 10.0 mi NW 10.4 mph - N/A   Overcast
3:53 AM 24.1 °F 14.4 °F 16.0 °F 71% 30.05 in 10.0 mi NW 9.2 mph - N/A   Overcast
4:31 AM 24.8 °F 14.6 °F 15.8 °F 69% 30.01 in 10.0 mi NNW 10.4 mph - N/A   Overcast
4:53 AM 24.1 °F 13.1 °F 16.0 °F 71% 30.06 in 10.0 mi NNW 11.5 mph - N/A   Overcast
5:53 AM 24.1 °F 17.0 °F 15.1 °F 69% 30.06 in 10.0 mi North 5.8 mph - 0.00 in   Overcast
6:53 AM 24.1 °F 15.2 °F 15.1 °F 69% 30.06 in 10.0 mi NNW 8.1 mph - N/A   Overcast
7:34 AM 23.0 °F 13.1 °F 17.6 °F 80% 30.03 in 2.0 mi NW 9.2 mph - 0.00 in Snow Light Snow
7:50 AM 23.0 °F 14.7 °F 17.6 °F 80% 30.03 in 3.0 mi NNW 6.9 mph - 0.00 in Snow Light Snow
7:53 AM 23.0 °F 15.8 °F 18.0 °F 81% 30.06 in 3.0 mi NNW 5.8 mph - 0.00 in Snow Light Snow
8:53 AM 24.1 °F 13.7 °F 16.0 °F 71% 30.07 in 10.0 mi NNW 10.4 mph - 0.00 in   Overcast
9:45 AM 24.8 °F 16.9 °F 15.8 °F 69% 30.03 in 10.0 mi NNW 6.9 mph - N/A   Overcast
9:53 AM 24.1 °F 13.7 °F 15.1 °F 69% 30.07 in 10.0 mi NNW 10.4 mph - N/A   Overcast
10:53 AM 25.0 °F 13.6 °F 15.1 °F 66% 30.07 in 10.0 mi WNW 12.7 mph - N/A   Overcast
11:53 AM 26.1 °F 16.2 °F 15.1 °F 63% 30.07 in 10.0 mi NNW 10.4 mph - N/A   Overcast
12:25 PM 26.6 °F 19.1 °F 15.8 °F 64% 30.03 in 10.0 mi Variable 6.9 mph - N/A   Overcast
12:53 PM 28.0 °F 18.6 °F 16.0 °F 61% 30.05 in 10.0 mi NW 10.4 mph - N/A   Mostly Cloudy
1:53 PM 28.9 °F 19.2 °F 16.0 °F 58% 30.03 in 10.0 mi NW 11.5 mph - N/A   Scattered Clouds
2:53 PM 30.0 °F 20.0 °F 16.0 °F 56% 30.02 in 10.0 mi NW 12.7 mph - N/A   Scattered Clouds
3:53 PM 30.0 °F 19.1 °F 16.0 °F 56% 30.03 in 10.0 mi NW 15.0 mph 21.9 mph N/A   Mostly Cloudy
4:53 PM 30.9 °F 21.7 °F 16.0 °F 54% 30.03 in 10.0 mi NW 11.5 mph - N/A   Mostly Cloudy
5:53 PM 30.0 °F 20.5 °F 14.0 °F 51% 30.04 in 10.0 mi NW 11.5 mph - N/A   Partly Cloudy
6:53 PM 28.0 °F 21.7 °F 17.1 °F 63% 30.06 in 10.0 mi NW 5.8 mph - N/A   Mostly Cloudy
7:53 PM 26.1 °F 20.5 °F 16.0 °F 66% 30.07 in 10.0 mi WNW 4.6 mph - N/A   Clear
8:53 PM 26.1 °F 20.5 °F 17.1 °F 69% 30.08 in 10.0 mi WNW 4.6 mph - N/A   Mostly Cloudy
9:53 PM 27.0 °F 21.6 °F 18.0 °F 69% 30.09 in 10.0 mi WNW 4.6 mph - N/A   Overcast
10:53 PM 27.0 °F 20.5 °F 18.0 °F 69% 30.08 in 10.0 mi NW 5.8 mph - N/A   Overcast
11:53 PM 25.0 °F 18.1 °F 17.1 °F 72% 30.09 in 10.0 mi NW 5.8 mph - N/A   Clear